| time (UTC) | temp F | wind direction | speed MPH | gust MPH | rain 1hr in | rain 24hr in | rain mn in | humidity % | barometer mb |
| 20260906211552 | 72 | 297 | 0.0 | 0.0 | 0.00 | 0.09 | 0.09 | 63 | 1012.5 |
| 20260906210048 | 70 | 297 | 0.0 | 0.0 | 0.00 | 0.09 | 0.09 | 65 | 1012.4 |
| 20260906204548 | 71 | 314 | 0.0 | 0.0 | 0.00 | 0.10 | 0.09 | 68 | 1012.3 |
| 20260906203047 | 69 | 162 | 0.0 | 1.0 | 0.00 | 0.10 | 0.09 | 73 | 1012.3 |
| 20260906201547 | 68 | 276 | 0.0 | 0.0 | 0.00 | 0.10 | 0.09 | 68 | 1012.4 |
| 20260906200050 | 71 | 276 | 0.0 | 1.0 | 0.00 | 0.10 | 0.09 | 64 | 1012.3 |
| 20260906194544 | 73 | 302 | 0.0 | 1.0 | 0.00 | 0.13 | 0.09 | 69 | 1012.2 |
| 20260906193041 | 72 | 142 | 0.0 | 0.0 | 0.00 | 0.13 | 0.09 | 64 | 1012.2 |
| 20260906191548 | 72 | 96 | 0.0 | 1.0 | 0.00 | 0.13 | 0.09 | 70 | 1012.3 |
| 20260906190039 | 70 | 276 | 0.0 | 1.0 | 0.00 | 0.13 | 0.09 | 75 | 1012.4 |
| 20260906184541 | 71 | 341 | 0.0 | 1.0 | 0.00 | 0.13 | 0.09 | 75 | 1012.6 |
| 20260906183043 | 71 | 128 | 0.0 | 1.0 | 0.00 | 0.13 | 0.09 | 68 | 1012.6 |
| 20260906181535 | 70 | 236 | 0.0 | 0.0 | 0.00 | 0.13 | 0.09 | 75 | 1012.8 |
| 20260906180043 | 70 | 236 | 0.0 | 3.0 | 0.00 | 0.13 | 0.09 | 73 | 1012.9 |
| 20260906174535 | 70 | 192 | 0.0 | 0.0 | 0.00 | 0.13 | 0.09 | 78 | 1013.0 |
| 20260906173031 | 69 | 235 | 0.0 | 1.0 | 0.00 | 0.13 | 0.09 | 77 | 1013.3 |
| 20260906171528 | 68 | 120 | 0.0 | 1.0 | 0.00 | 0.13 | 0.09 | 83 | 1013.5 |
| 20260906170027 | 67 | 31 | 0.0 | 0.0 | 0.06 | 0.13 | 0.09 | 87 | 1013.6 |
| 20260906164527 | 66 | 94 | 0.0 | 1.0 | 0.06 | 0.13 | 0.09 | 90 | 1013.7 |
| 20260906163026 | 64 | 356 | 0.0 | 0.0 | 0.06 | 0.13 | 0.09 | 89 | 1014.0 |
| 20260906161526 | 65 | 356 | 0.0 | 0.0 | 0.06 | 0.13 | 0.09 | 83 | 1014.0 |
| 20260906160024 | 68 | 11 | 0.0 | 1.0 | 0.00 | 0.07 | 0.03 | 78 | 1014.0 |
| 20260906154520 | 66 | 27 | 0.0 | 0.0 | 0.00 | 0.07 | 0.03 | 83 | 1014.1 |
| 20260906153019 | 66 | 223 | 0.0 | 1.0 | 0.00 | 0.07 | 0.03 | 82 | 1014.3 |
| 20260906151514 | 65 | 321 | 0.0 | 0.0 | 0.00 | 0.07 | 0.03 | 86 | 1014.4 |
| 20260906150015 | 63 | 261 | 0.0 | 0.0 | 0.00 | 0.07 | 0.03 | 87 | 1014.5 |
| 20260906144515 | 63 | 127 | 0.0 | 1.0 | 0.00 | 0.07 | 0.03 | 88 | 1014.5 |
| 20260906143008 | 62 | 141 | 0.0 | 0.0 | 0.00 | 0.07 | 0.03 | 91 | 1014.5 |
| 20260906141504 | 62 | 141 | 0.0 | 1.0 | 0.00 | 0.07 | 0.03 | 92 | 1014.6 |
| 20260906140003 | 61 | 28 | 0.0 | 0.0 | 0.00 | 0.07 | 0.03 | 94 | 1014.7 |
| 20260906134600 | 61 | 141 | 0.0 | 2.0 | 0.00 | 0.07 | 0.03 | 96 | 1014.5 |
| 20260906133121 | 60 | 117 | 0.0 | 0.0 | 0.00 | 0.07 | 0.03 | 97 | 1014.5 |
| 20260906131614 | 59 | 117 | 0.0 | 1.0 | 0.00 | 0.07 | 0.03 | 98 | 1014.4 |
| 20260906130105 | 59 | 347 | 0.0 | 0.0 | 0.00 | 0.07 | 0.03 | 98 | 1014.5 |
| 20260906124555 | 58 | 347 | 0.0 | 0.0 | 0.00 | 0.07 | 0.03 | 98 | 1014.4 |
| 20260906123054 | 58 | 347 | 0.0 | 0.0 | 0.00 | 0.07 | 0.03 | 99 | 1014.4 |
| 20260906121553 | 57 | 106 | 0.0 | 0.0 | 0.00 | 0.07 | 0.03 | 99 | 1014.2 |
| 20260906120058 | 57 | 106 | 0.0 | 1.0 | 0.00 | 0.07 | 0.03 | 99 | 1014.1 |
| 20260906114552 | 56 | 130 | 0.0 | 0.0 | 0.00 | 0.07 | 0.03 | 98 | 1013.9 |
| 20260906113047 | 56 | 130 | 0.0 | 0.0 | 0.00 | 0.07 | 0.03 | 99 | 1013.6 |
| 20260906111546 | 56 | 130 | 0.0 | 0.0 | 0.00 | 0.07 | 0.03 | 99 | 1013.5 |
| 20260906110045 | 56 | 130 | 0.0 | 0.0 | 0.00 | 0.07 | 0.03 | 99 | 1013.4 |
| 20260906104543 | 55 | 130 | 0.0 | 0.0 | 0.00 | 0.07 | 0.03 | 98 | 1013.3 |
| 20260906103040 | 55 | 131 | 0.0 | 0.0 | 0.00 | 0.07 | 0.03 | 98 | 1013.0 |
| 20260906101539 | 55 | 130 | 0.0 | 0.0 | 0.00 | 0.07 | 0.03 | 98 | 1012.9 |
| 20260906100039 | 55 | 130 | 0.0 | 0.0 | 0.01 | 0.07 | 0.03 | 98 | 1012.9 |
| 20260906094535 | 56 | 130 | 0.0 | 0.0 | 0.01 | 0.07 | 0.03 | 98 | 1012.7 |
| 20260906093043 | 57 | 130 | 0.0 | 0.0 | 0.02 | 0.07 | 0.03 | 98 | 1012.6 |
| 20260906091531 | 57 | 130 | 0.0 | 0.0 | 0.02 | 0.07 | 0.03 | 98 | 1012.6 |
| 20260906090031 | 57 | 130 | 0.0 | 0.0 | 0.02 | 0.06 | 0.02 | 98 | 1012.6 |
| 20260906084533 | 57 | 130 | 0.0 | 0.0 | 0.02 | 0.06 | 0.02 | 98 | 1012.5 |
| 20260906083029 | 57 | 130 | 0.0 | 0.0 | 0.01 | 0.05 | 0.01 | 98 | 1012.7 |
| 20260906081530 | 57 | 130 | 0.0 | 0.0 | 0.01 | 0.05 | 0.01 | 98 | 1012.5 |
| 20260906080026 | 57 | 130 | 0.0 | 0.0 | 0.00 | 0.04 | 0.00 | 98 | 1012.4 |
| 20260906074527 | 58 | 130 | 0.0 | 0.0 | 0.00 | 0.04 | 0.00 | 98 | 1012.1 |
| 20260906073027 | 58 | 130 | 0.0 | 0.0 | 0.00 | 0.04 | 0.00 | 98 | 1012.1 |
| 20260906071521 | 58 | 130 | 0.0 | 0.0 | 0.00 | 0.04 | 0.00 | 98 | 1012.2 |
| 20260906070019 | 59 | 130 | 0.0 | 0.0 | 0.00 | 0.04 | 0.00 | 98 | 1012.1 |
| 20260906064518 | 59 | 130 | 0.0 | 0.0 | 0.00 | 0.04 | 0.00 | 98 | 1012.0 |
| 20260906063015 | 59 | 130 | 0.0 | 0.0 | 0.00 | 0.04 | 0.00 | 98 | 1011.9 |
| 20260906061514 | 59 | 130 | 0.0 | 0.0 | 0.00 | 0.04 | 0.00 | 98 | 1012.0 |
| 20260906060021 | 59 | 130 | 0.0 | 0.0 | 0.00 | 0.04 | 0.00 | 98 | 1011.8 |
| 20260906054517 | 60 | 130 | 0.0 | 0.0 | 0.00 | 0.04 | 0.00 | 98 | 1011.8 |
| 20260906053019 | 60 | 130 | 0.0 | 0.0 | 0.00 | 0.04 | 0.00 | 98 | 1011.9 |
| 20260906051510 | 60 | 130 | 0.0 | 0.0 | 0.00 | 0.04 | 0.00 | 98 | 1012.0 |
| 20260906050010 | 60 | 130 | 0.0 | 0.0 | 0.00 | 0.04 | 0.00 | 98 | 1011.9 |
| 20260906044510 | 60 | 130 | 0.0 | 0.0 | 0.00 | 0.04 | 0.00 | 98 | 1011.9 |
| 20260906043010 | 60 | 130 | 0.0 | 0.0 | 0.00 | 0.04 | 0.00 | 98 | 1011.9 |
| 20260906041511 | 60 | 130 | 0.0 | 0.0 | 0.00 | 0.04 | 0.00 | 98 | 1011.9 |
| 20260906040007 | 60 | 130 | 0.0 | 0.0 | 0.00 | 0.04 | 0.00 | 97 | 1011.9 |
| 20260906034504 | 60 | 130 | 0.0 | 0.0 | 0.00 | 0.04 | 0.04 | 97 | 1011.8 |
| 20260906033003 | 60 | 130 | 0.0 | 0.0 | 0.00 | 0.04 | 0.04 | 97 | 1011.7 |
| 20260906031501 | 60 | 130 | 0.0 | 0.0 | 0.00 | 0.04 | 0.04 | 97 | 1011.7 |
| 20260906030001 | 60 | 130 | 0.0 | 0.0 | 0.00 | 0.04 | 0.04 | 97 | 1011.7 |
| 20260906024601 | 60 | 130 | 0.0 | 0.0 | 0.00 | 0.04 | 0.04 | 97 | 1011.5 |
| 20260906023100 | 60 | 130 | 0.0 | 0.0 | 0.00 | 0.04 | 0.04 | 97 | 1011.6 |
| 20260906021600 | 61 | 130 | 0.0 | 0.0 | 0.00 | 0.04 | 0.04 | 97 | 1011.5 |
| 20260905234528 | 61 | 130 | 0.0 | 0.0 | 0.00 | 0.04 | 0.04 | 94 | 1011.0 |
| 20260905233026 | 61 | 130 | 0.0 | 0.0 | 0.00 | 0.04 | 0.04 | 94 | 1010.9 |
| 20260905231527 | 62 | 130 | 0.0 | 0.0 | 0.00 | 0.04 | 0.04 | 93 | 1010.9 |
| 20260905230025 | 62 | 130 | 0.0 | 0.0 | 0.00 | 0.04 | 0.04 | 93 | 1010.8 |
| 20260905224524 | 63 | 130 | 0.0 | 0.0 | 0.00 | 0.04 | 0.04 | 92 | 1010.8 |
| 20260905223024 | 64 | 130 | 0.0 | 0.0 | 0.00 | 0.04 | 0.04 | 92 | 1010.7 |
| 20260905221533 | 64 | 130 | 0.0 | 0.0 | 0.00 | 0.04 | 0.04 | 93 | 1010.7 |
| 20260905220021 | 64 | 130 | 0.0 | 0.0 | 0.00 | 0.04 | 0.04 | 93 | 1010.4 |
| 20260905214519 | 64 | 130 | 0.0 | 0.0 | 0.00 | 0.04 | 0.04 | 94 | 1010.0 |
| 20260905213029 | 64 | 130 | 0.0 | 1.0 | 0.00 | 0.04 | 0.04 | 94 | 1010.2 |